Regional Weather Roundup
Issued by NWS

Home | Current Version | Previous Version | Text Only | Print | Product List | Glossary On
Versions: 1 2 3 4 5 6 7 8 9 10 11 12 13 14 15 16 17 18 19 20 21 22 23 24 25 26 27 28 29 30 31 32 33 34 35 36 37 38 39 40 41 42 43 44 45 46 47 48 49 50
000
ASUS43 KLSX 181459
RWRMO

WEATHER SUMMARY FOR MISSOURI
NATIONAL WEATHER SERVICE SPRINGFIELD MO
1000 AM CDT FRI APR 18 2014

NOTE: "FAIR" INDICATES FEW OR NO CLOUDS BELOW 12,000 FEET WITH NO
       SIGNIFICANT WEATHER AND/OR OBSTRUCTIONS TO VISIBILITY.
       CURRENT SKY AND/OR WEATHER CONDITIONS ARE NOT AVAILABLE FOR
       CHILLICOTHE AND FARMINGTON.

MOZ001>031-035>038-043-044-053-054-181600-
...NORTHERN AND WESTERN MISSOURI...

CITY           SKY/WX    TMP DP  RH WIND       PRES   REMARKS
KANSAS CTY INT SUNNY     50  36  58 CALM      30.32S
KANSAS C DTWN  SUNNY     50  37  61 VRB3      30.32F
LEE`S SUMMIT   SUNNY     50  38  63 VRB3      30.32S
ST JOSEPH      SUNNY     49  35  58 S8        30.33S
CHILLICOTHE      N/A     50  38  63 E3        30.34F
KIRKSVILLE     SUNNY     51  36  56 E6        30.35S

$$
MOZ066>068-077>081-088>096-101>105-181600-
...SOUTHWEST MISSOURI...

CITY           SKY/WX    TMP DP  RH WIND       PRES   REMARKS
SPRINGFIELD    SUNNY     60  42  51 CALM      30.28S
JOPLIN         SUNNY     55  43  63 CALM      30.30R

$$
MOZ032>034-039>042-045>050-055>058-069>072-181600-
...CENTRAL MISSOURI...

CITY           SKY/WX    TMP DP  RH WIND       PRES   REMARKS
COLUMBIA       SUNNY     54  42  64 VRB6      30.33R
JEFFERSON CITY SUNNY     53  39  59 SE7       30.33S
ROLLA          SUNNY     55  41  59 E7        30.30S
SEDALIA        SUNNY     52  43  71 NE7       30.34R
OSAGE BEACH    SUNNY     55  41  58 NE6       30.33S

$$
MOZ051-052-059>065-181600-
...EAST CENTRAL MISSOURI...

CITY           SKY/WX    TMP DP  RH WIND       PRES   REMARKS
ST LOUIS INTL  MOSUNNY   57  39  51 CALM      30.33R
SPIRIT OF STL  SUNNY     54  40  59 VRB3      30.33R
ST CHARLES     SUNNY     56  41  57 NE6       30.32S

$$
MOZ072>076-082>087-097>100-106>115-181600-
...SOUTH CENTRAL AND SOUTHEAST MISSOURI...

CITY           SKY/WX    TMP DP  RH WIND       PRES   REMARKS
CAPE GIRARDEAU SUNNY     64  46  52 N7        30.29R
FARMINGTON     SUNNY     55  43  62 N5        30.33S
POPLAR BLUFF   SUNNY     66  43  43 NE7       30.27R
WEST PLAINS    SUNNY     61  42  49 E3        30.29R

$$



USA.gov is the U.S. government's official web portal to all federal, state and local government web resources and services.